Regional Weather Roundup
Issued by NWS

Home | Current Version | Previous Version | Graphics & Text | Print | Product List | Glossary Off
Versions: 1 2 3 4 5 6 7 8 9 10 11 12 13 14 15 16 17 18 19 20 21 22 23 24 25 26 27 28 29 30 31 32 33 34 35 36 37 38 39 40 41 42 43 44 45 46 47 48 49 50

000
ASUS43 KLSX 300659
RWRMO

WEATHER SUMMARY FOR MISSOURI
NATIONAL WEATHER SERVICE SPRINGFIELD MO
200 AM CDT TUE JUN 30 2015

NOTE: "FAIR" INDICATES FEW OR NO CLOUDS BELOW 12,000 FEET WITH NO
       SIGNIFICANT WEATHER AND/OR OBSTRUCTIONS TO VISIBILITY.
       CURRENT SKY AND/OR WEATHER CONDITIONS ARE NOT AVAILABLE FOR
       CHILLICOTHE AND FARMINGTON.

MOZ001>031-035>038-043-044-053-054-300800-
...NORTHERN AND WESTERN MISSOURI...

CITY           SKY/WX    TMP DP  RH WIND       PRES   REMARKS
KANSAS CTY INT CLEAR     72  66  81 SW5       29.93F
KANSAS C DTWN  CLEAR     74  68  81 CALM      29.92S
LEE`S SUMMIT   CLEAR     72  65  78 SW5       29.94S
ST JOSEPH      CLEAR     67  65  93 CALM      29.92S
CHILLICOTHE      N/A     69  67  93 CALM      29.92S
KIRKSVILLE     CLEAR     64  62  93 W5        29.90S

$$
MOZ066>068-077>081-088>096-101>105-300800-
...SOUTHWEST MISSOURI...

CITY           SKY/WX    TMP DP  RH WIND       PRES   REMARKS
SPRINGFIELD    CLEAR     70  64  81 SW7       29.97S
JOPLIN         CLEAR     69  64  84 S5        29.97S

$$
MOZ032>034-039>042-045>050-055>058-069>072-300800-
...CENTRAL MISSOURI...

CITY           SKY/WX    TMP DP  RH WIND       PRES   REMARKS
COLUMBIA       CLEAR     70  67  90 W6        29.91F
JEFFERSON CITY CLEAR     70  68  93 CALM      29.90F
ROLLA          CLEAR     67  64  90 SW6       29.92F
SEDALIA        PTCLDY    72  66  81 SW5       29.94S
OSAGE BEACH    PTCLDY    66  64  94 W3        29.93F

$$
MOZ051-052-059>065-300800-
...EAST CENTRAL MISSOURI...

CITY           SKY/WX    TMP DP  RH WIND       PRES   REMARKS
ST LOUIS INTL  PTCLDY    73  67  81 SW6       29.88F
SPIRIT OF STL  CLEAR     68  68 100 CALM      29.87F
ST CHARLES     CLEAR     69  69 100 SW3       29.86F FOG

$$
MOZ072>076-082>087-097>100-106>115-300800-
...SOUTH CENTRAL AND SOUTHEAST MISSOURI...

CITY           SKY/WX    TMP DP  RH WIND       PRES   REMARKS
CAPE GIRARDEAU CLEAR     70  67  90 W5        29.89S
FARMINGTON     CLEAR     68  64  88 CALM      29.94F
POPLAR BLUFF   PTCLDY    72  67  84 CALM      29.90R
WEST PLAINS    CLEAR     67  63  87 CALM      29.97S

$$


USA.gov is the U.S. government's official web portal to all federal, state and local government web resources and services.